Regional Weather Roundup
Issued by NWS

Home | Current Version | Previous Version | Text Only | Print | Product List | Glossary On
Versions: 1 2 3 4 5 6 7 8 9 10 11 12 13 14 15 16 17 18 19 20 21 22 23 24 25 26 27 28 29 30 31 32 33 34 35 36 37 38 39 40 41 42 43 44 45 46 47 48 49 50
000
ASUS43 KTOP 290008
RWRKS

WEATHER ROUNDUP FOR KANSAS
NATIONAL WEATHER SERVICE GOODLAND KS
700 PM CDT TUE JUL 28 2015

NOTE:  "FAIR" INDICATES FEW OR NO CLOUDS BELOW 12,000 FEET WITH NO
SIGNIFICANT WEATHER AND/OR OBSTRUCTIONS TO VISIBILITY.

KSZ001>006-013>018-027>032-041>047-290100-
NORTHWEST KANSAS

CITY           SKY/WX    TMP DP  RH WIND       PRES   REMARKS
GOODLAND       SUNNY     83  43  24 NE16      30.08S
6HR MIN TEMP:  80; 6HR MAX TEMP:  85;

HAYS           SUNNY     86  63  45 N15       29.94S
HILL CITY      SUNNY     85  53  33 N18       29.99S
6HR MIN TEMP:  83; 6HR MAX TEMP:  87;

RUSSELL        SUNNY     87  70  56 N15       29.90S
6HR MIN TEMP:  87; 6HR MAX TEMP:  94;

$$

KSZ061>065-074>080-084>089-290100-
SOUTHWEST KANSAS

CITY           SKY/WX    TMP DP  RH WIND       PRES   REMARKS
DODGE CITY     MOSUNNY   86  65  49 N13       29.95F
6HR MIN TEMP:  86; 6HR MAX TEMP:  90;

ELKHART          N/A     83  59  44 NE10        N/A
GARDEN CITY    MOSUNNY   83  58  42 NE13      30.00S
6HR MIN TEMP:  83; 6HR MAX TEMP:  86;

GREAT BEND     SUNNY     91  70  49 N20       29.89R HX  97
LIBERAL        MOSUNNY   84  63  48 N17       29.97S
PRATT          SUNNY     97  63  32 S12       29.88S HX  98
$$

KSZ066>073-081>083-090>101-290100-
SOUTHEAST KANSAS

CITY           SKY/WX    TMP DP  RH WIND       PRES   REMARKS
CHANUTE        SUNNY     91  72  53 S15G23    29.90F HX  98
6HR MIN TEMP:  91; 6HR MAX TEMP:  95;

COFFEYVILLE    SUNNY     92  73  53 S15       29.89F HX 100
6HR MIN TEMP:  92; 6HR MAX TEMP:  96;

HUTCHINSON     SUNNY    100  66  32 S18       29.84F HX 104
6HR MIN TEMP:  99; 6HR MAX TEMP: 103; 6HR PCP: TRACE;

MEDICINE LODGE   N/A     98  69  38 S9        29.83F HX 104
NEWTON         SUNNY     97  68  38 S21G26    29.89S HX 101
PARSONS        SUNNY     90  74  59 S12       29.91S HX  99
6HR MIN TEMP:  90; 6HR MAX TEMP:  94;

WICHITA INTL   MOSUNNY   96  70  42 S23G29    29.85S HX 102
6HR MIN TEMP:  96; 6HR MAX TEMP: 100;

WICHITA JABRA  SUNNY     95  71  45 S18G25    29.86S HX 102
6HR MIN TEMP:  95; 6HR MAX TEMP:  99;

WICHITA MCCONL SUNNY     94  73  50 S22       29.86F HX 103
WINFIELD       SUNNY     93  72  50 S17       29.88F HX 101
6HR MIN TEMP:  93; 6HR MAX TEMP:  98;

$$

KSZ007>012-019>026-033>040-048>060-102>105-290100-
NORTHEAST KANSAS

CITY           SKY/WX    TMP DP  RH WIND       PRES   REMARKS
CONCORDIA      SUNNY     83  73  72 N17G24    29.89R
6HR MIN TEMP:  83; 6HR MAX TEMP:  96;

EMPORIA        SUNNY     94  72  48 S17G24    29.86F HX 102
6HR MIN TEMP:  94; 6HR MAX TEMP: 100;

LAWRENCE       SUNNY     93  72  50 S9G17     29.84F HX 101
6HR MIN TEMP:  93; 6HR MAX TEMP:  96;

MANHATTAN      SUNNY     96  74  48 S14       29.81F HX 107
6HR MIN TEMP:  96; 6HR MAX TEMP: 101;

MARYSVILLE     CLOUDY    84  79  84 N15       29.86R HX  96
OLATHE IND     SUNNY     92  71  50 S10       29.88F HX  98
6HR MIN TEMP:  92; 6HR MAX TEMP:  95;

OLATHE EXE     SUNNY     91  70  49 S10       29.87F HX  96
6HR MIN TEMP:  90; 6HR MAX TEMP:  93;

SALINA         SUNNY    100  69  36 S16G23    29.82S HX 106
6HR MIN TEMP:  98; 6HR MAX TEMP: 103;

TOPEKA BILLARD SUNNY     94  72  48 S13       29.84S HX 102
6HR MIN TEMP:  93; 6HR MAX TEMP:  97;

TOPEKA FORBES  SUNNY     95  72  47 S13       29.85F HX 103
6HR MIN TEMP:  95; 6HR MAX TEMP:  99;

$$



USA.gov is the U.S. government's official web portal to all federal, state and local government web resources and services.